Regional Weather Roundup
Issued by NWS

Home | Current Version | Previous Version | Graphics & Text | Print | Product List | Glossary On
Versions: 1 2 3 4 5 6 7 8 9 10 11 12 13 14 15 16 17 18 19 20 21 22 23 24 25 26 27 28 29 30 31 32 33 34 35 36 37 38 39 40 41 42 43 44 45 46 47 48 49 50
750
ASUS43 KTOP 251159
RWRKS

WEATHER ROUNDUP FOR KANSAS
NATIONAL WEATHER SERVICE GOODLAND KS
700 AM CDT SAT MAR 25 2017

NOTE:  "FAIR" INDICATES FEW OR NO CLOUDS BELOW 12,000 FEET WITH NO
SIGNIFICANT WEATHER AND/OR OBSTRUCTIONS TO VISIBILITY.

KSZ001>006-013>018-027>032-041>047-251300-
NORTHWEST KANSAS

CITY           SKY/WX    TMP DP  RH WIND       PRES   REMARKS
GOODLAND       CLEAR     31  29  92 NW8       30.04S
6HR MIN TEMP:  31; 6HR MAX TEMP:  36;

HAYS             N/A     42  39  89 N16       29.98F
HILL CITY      CLOUDY    42  37  82 N15       30.01R
6HR MIN TEMP:  42; 6HR MAX TEMP:  43;

RUSSELL        CLOUDY    41  39  93 N14       29.97S
6HR MIN TEMP:  40; 6HR MAX TEMP:  41; 6HR PCP: TRACE;

$$

KSZ061>065-074>080-084>089-251300-
SOUTHWEST KANSAS

CITY           SKY/WX    TMP DP  RH WIND       PRES   REMARKS
DODGE CITY     CLOUDY    42  39  89 N17G29    29.97S
6HR MIN TEMP:  41; 6HR MAX TEMP:  42;

ELKHART          N/A     34  24  67 W14         N/A  WCI  25
GARDEN CITY    CLEAR     36  32  85 NW14      30.01R WCI  27
6HR MIN TEMP:  36; 6HR MAX TEMP:  42;

GREAT BEND     CLOUDY    42  38  85 N21       29.97S
LIBERAL        PTCLDY    36  28  75 NW8       30.03F
$$

KSZ066>073-081>083-090>101-251300-
SOUTHEAST KANSAS

CITY           SKY/WX    TMP DP  RH WIND       PRES   REMARKS
CHANUTE        CLOUDY    47  45  93 NW10      29.85R
6HR MIN TEMP:  47; 6HR MAX TEMP:  53; 6HR PCP:  0.04;

COFFEYVILLE    LGT RAIN  48  47  96 NW15      29.84R FOG
6HR MIN TEMP:  48; 6HR MAX TEMP:  54; 6HR PCP:  0.16;

HUTCHINSON     CLOUDY    42  40  92 NW15      29.92S
6HR MIN TEMP:  42; 6HR MAX TEMP:  44; 6HR PCP:  0.22;

MEDICINE LODGE   N/A     44  37  76 N24G30    29.94R
NEWTON         LGT RAIN  41  40  96 N22       29.89R
PARSONS        LGT RAIN  48  46  93 NW9       29.85S FOG
6HR MIN TEMP:  48; 6HR MAX TEMP:  53; 6HR PCP:  0.05;

WICHITA INTL   LGT RAIN  43  42  97 N21       29.89R
6HR MIN TEMP:  43; 6HR MAX TEMP:  47; 6HR PCP:  0.10;

WICHITA JABRA  LGT RAIN  42  41  96 NW17G25   29.89R
6HR MIN TEMP:  42; 6HR MAX TEMP:  46; 6HR PCP:  0.03;

WICHITA MCCONL LGT RAIN  43  41  93 N20G28    29.88R
WINFIELD       CLOUDY    44  41  89 NW14      29.90R
6HR MIN TEMP:  44; 6HR MAX TEMP:  53; 6HR PCP:  0.04;

$$

KSZ007>012-019>026-033>040-048>060-102>105-251300-
NORTHEAST KANSAS

CITY           SKY/WX    TMP DP  RH WIND       PRES   REMARKS
CONCORDIA      LGT RAIN  40  39  97 N15       29.95R WCI  32
6HR MIN TEMP:  40; 6HR MAX TEMP:  42; 6HR PCP:  0.34;

EMPORIA        LGT RAIN  43  43 100 N17G24    29.84R
6HR MIN TEMP:  43; 6HR MAX TEMP:  49; 6HR PCP:  0.22;

LAWRENCE       CLOUDY    46  46 100 NW15      29.79F FOG
6HR MIN TEMP:  46; 6HR MAX TEMP:  53; 6HR PCP:  0.01;

MANHATTAN      LGT RAIN  43  40  89 N10G18    29.90R FOG
6HR MIN TEMP:  43; 6HR MAX TEMP:  45; 6HR PCP:  0.14;

OLATHE IND     FOG       47  46  97 NW12      29.78S VSB 1
6HR MIN TEMP:  47; 6HR MAX TEMP:  54;

OLATHE EXE     CLOUDY    48  48 100 NW9       29.77R FOG
6HR MIN TEMP:  48; 6HR MAX TEMP:  57; 6HR PCP: TRACE;

SALINA         LGT RAIN  44  41  89 NW21G28   29.94R
6HR MIN TEMP:  44; 6HR MAX TEMP:  45; 6HR PCP:  0.11;

TOPEKA BILLARD LGT RAIN  45  44  97 NW10      29.83R
6HR MIN TEMP:  45; 6HR MAX TEMP:  50; 6HR PCP:  0.01;

TOPEKA FORBES  CLOUDY    46  43  89 NW17G24   29.82R
6HR MIN TEMP:  46; 6HR MAX TEMP:  52; 6HR PCP:  0.02;

$$




USA.gov is the U.S. government's official web portal to all federal, state and local government web resources and services.